This demonstration page uses our WeatherBlox Daily Observations layout. Learn more.

Left ArrowRight Arrow

Hourly Observations for November 25, 2019

Temp ( °F °C ) Dew Point ( °F °C ) Humidity (%) Winds ( mph kmh ) Pressure ( in mb ) Visibility ( mi km ) Precip ( " mm )
12:15 am 00:15 Clear 37 3 32 0 81 81 SW 7 11 29.8 1009 10 16.0934 0 0
12:35 am 00:35 Clear 41 5 32 0 70 70 SSW 7 11 29.8 1009 10 16.0934 0 0
12:55 am 00:55 Clear 36 2 32 0 87 87 WSW 5 7 29.8 1009 10 16.0934 0 0
1:15 am 01:15 Clear 36 2 32 0 87 87 Calm 29.83 1010 10 16.0934 0 0
1:35 am 01:35 Clear 36 2 32 0 87 87 Calm 29.83 1010 10 16.0934 0 0
1:55 am 01:55 Clear 39 4 32 0 75 75 SW 6 9 29.83 1010 10 16.0934 0 0
2:15 am 02:15 Clear 43 6 32 0 66 66 WNW 9 15 29.83 1010 10 16.0934 0 0
2:35 am 02:35 Clear 43 6 32 0 66 66 NW 7 11 29.83 1010 10 16.0934 0 0
2:55 am 02:55 Clear 43 6 32 0 66 66 NNW 8 13 29.83 1010 10 16.0934 0 0
3:15 am 03:15 Clear 43 6 32 0 66 66 NW 12 19 29.83 1010 10 16.0934 0 0
3:35 am 03:35 Clear 43 6 34 1 71 71 NNW 12 19 29.83 1010 10 16.0934 0 0
3:55 am 03:55 Clear 43 6 34 1 71 71 WNW 9 15 29.85 1011 10 16.0934 0 0
4:15 am 04:15 Clear 43 6 34 1 71 71 NW 8 13 29.85 1011 10 16.0934 0 0
4:35 am 04:35 Clear 41 5 34 1 76 76 NW 7 11 29.85 1011 10 16.0934 0 0
4:55 am 04:55 Clear 41 5 34 1 76 76 WSW 5 7 29.85 1011 10 16.0934 0 0
5:15 am 05:15 Clear 39 4 34 1 81 81 W 6 9 29.85 1011 10 16.0934 0 0
5:35 am 05:35 Clear 39 4 34 1 81 81 SW 5 7 29.85 1011 10 16.0934 0 0
5:55 am 05:55 Clear 37 3 32 0 81 81 Calm 29.85 1011 10 16.0934 0 0
6:15 am 06:15 Clear 37 3 34 1 87 87 Calm 29.85 1011 10 16.0934 0 0
6:35 am 06:35 Clear 37 3 32 0 81 81 Calm 29.85 1011 10 16.0934 0 0
6:55 am 06:55 Clear 36 2 32 0 87 87 Calm 29.85 1011 10 16.0934 0 0
7:15 am 07:15 Sunny 34 1 32 0 93 93 Calm 29.88 1012 10 16.0934 0 0
7:35 am 07:35 Sunny 34 1 32 0 93 93 Calm 29.88 1012 10 16.0934 0 0
7:55 am 07:55 Sunny 36 2 34 1 93 93 Calm 29.88 1012 10 16.0934 0 0
8:15 am 08:15 Sunny 39 4 34 1 81 81 Calm 29.88 1012 10 16.0934 0 0
8:35 am 08:35 Sunny 43 6 36 2 76 76 Calm 29.88 1012 10 16.0934 0 0
8:55 am 08:55 Sunny 45 7 36 2 71 71 undefined N/A 29.91 1013 10 16.0934 0 0
9:35 am 09:35 Sunny 50 10 36 2 58 58 WNW 8 13 29.88 1012 10 16.0934 0 0
9:55 am 09:55 Sunny 50 10 36 2 58 58 NNW 8 13 29.88 1012 10 16.0934 0 0
10:15 am 10:15 Sunny 52 11 36 2 54 54 WNW 8 13 29.88 1012 10 16.0934 0 0
10:35 am 10:35 Sunny 52 11 36 2 54 54 SW 7 11 29.88 1012 10 16.0934 0 0
10:55 am 10:55 Sunny 52 11 36 2 54 54 SW 3 6 29.88 1012 10 16.0934 0 0
11:15 am 11:15 Sunny 54 12 36 2 51 51 Calm 29.88 1012 10 16.0934 0 0
11:55 am 11:55 Sunny 54 12 34 1 47 47 SSW 9 15 29.85 1011 10 16.0934 0 0
12:15 pm 12:15 Sunny 54 12 36 2 51 51 S 9 15 29.85 1011 10 16.0934 0 0
12:35 pm 12:35 Sunny 55 13 36 2 47 47 SSW 9 15 29.85 1011 10 16.0934 0 0
12:55 pm 12:55 Sunny 55 13 36 2 47 47 SSW 8 13 29.85 1011 10 16.0934 0 0
1:15 pm 13:15 Sunny 55 13 34 1 44 44 S 12 19 29.85 1011 10 16.0934 0 0
1:35 pm 13:35 Sunny 55 13 34 1 44 44 S 10 17 29.85 1011 10 16.0934 0 0
1:55 pm 13:55 Sunny 55 13 34 1 44 44 S 9 15 29.83 1010 10 16.0934 0 0
2:35 pm 14:35 Sunny 55 13 34 1 44 44 S 10 17 29.85 1011 10 16.0934 0 0
2:55 pm 14:55 Sunny 55 13 34 1 44 44 S 8 13 29.85 1011 10 16.0934 0 0
3:15 pm 15:15 Sunny 55 13 34 1 44 44 S 7 11 29.85 1011 10 16.0934 0 0
3:35 pm 15:35 Sunny 55 13 36 2 47 47 SSW 8 13 29.85 1011 10 16.0934 0 0
3:55 pm 15:55 Sunny 55 13 34 1 44 44 S 7 11 29.85 1011 10 16.0934 0 0
4:15 pm 16:15 Partly Cloudy 54 12 36 2 51 51 S 6 9 29.88 1012 10 16.0934 0 0
4:35 pm 16:35 Sunny 54 12 36 2 51 51 S 6 9 29.88 1012 10 16.0934 0 0
4:55 pm 16:55 Clear 52 11 36 2 54 54 S 7 11 29.88 1012 10 16.0934 0 0
5:15 pm 17:15 Clear 52 11 36 2 54 54 S 6 9 29.88 1012 10 16.0934 0 0
5:35 pm 17:35 Clear 50 10 36 2 58 58 S 7 11 29.88 1012 10 16.0934 0 0
6:15 pm 18:15 Clear 48 9 36 2 62 62 S 6 9 29.88 1012 10 16.0934 0 0
6:35 pm 18:35 Clear 48 9 36 2 62 62 S 5 7 29.91 1013 10 16.0934 0 0
6:55 pm 18:55 Clear 46 8 36 2 66 66 S 5 7 29.94 1014 10 16.0934 0 0
7:15 pm 19:15 Clear 43 6 36 2 76 76 S 3 6 29.94 1014 10 16.0934 0 0
7:35 pm 19:35 Clear 46 8 36 2 66 66 S 5 7 29.94 1014 10 16.0934 0 0
7:55 pm 19:55 Clear 41 5 36 2 81 81 S 3 6 29.94 1014 10 16.0934 0 0
8:15 pm 20:15 Clear 41 5 36 2 81 81 SSW 5 7 29.94 1014 10 16.0934 0 0
8:35 pm 20:35 Clear 41 5 36 2 81 81 SSW 5 7 29.97 1015 10 16.0934 0 0
8:55 pm 20:55 Clear 41 5 36 2 81 81 S 3 6 29.97 1015 10 16.0934 0 0
9:15 pm 21:15 Clear 37 3 36 2 93 93 Calm 29.97 1015 10 16.0934 0 0
9:35 pm 21:35 Clear 37 3 34 1 87 87 Calm 29.97 1015 10 16.0934 0 0
9:55 pm 21:55 Clear 37 3 34 1 87 87 SSW 3 6 29.97 1015 10 16.0934 0 0
10:15 pm 22:15 Clear 36 2 34 1 93 93 SSW 6 9 29.97 1015 10 16.0934 0 0
10:35 pm 22:35 Clear 36 2 34 1 93 93 S 7 11 29.97 1015 10 16.0934 0 0
10:55 pm 22:55 Clear 41 5 34 1 76 76 S 5 7 29.97 1015 10 16.0934 0 0
11:15 pm 23:15 Clear 36 2 34 1 93 93 SW 3 6 29.97 1015 10 16.0934 0 0
11:35 pm 23:35 Clear 37 3 34 1 87 87 S 5 7 29.97 1015 10 16.0934 0 0
11:55 pm 23:55 Clear 34 1 32 0 93 93 SW 3 6 29.97 1015 10 16.0934 0 0

Powered by AerisWeather